Location: Houston
(29.7630°N, 95.3630°W)
Time: 16:31:37
(UTC-05:00)

ISS - All Passes

Search period start: 27 May 2018 00:00
Search period end: 06 June 2018 00:00
Orbit: 402 x 407 km, 51.6° (Epoch: 27 May)

Date Brightness Start Highest point End Pass type
(mag) Time Alt. Az. Time Alt. Az. Time Alt. Az.
27 May - 02:46:37 10° NNW 02:49:34 31° NE 02:52:30 10° ESE night (unlit)
27 May - 04:23:56 10° W 04:25:48 14° SW 04:27:41 10° SSW night (unlit)
27 May - 17:46:38 10° S 17:48:50 17° SE 17:51:01 10° E daylight
27 May - 19:22:16 10° WSW 19:25:08 27° NW 19:27:59 10° NNE daylight
28 May - 01:55:04 10° N 01:57:14 16° NE 01:59:24 10° E night (unlit)
28 May - 03:30:48 10° WNW 03:33:46 32° SW 03:36:42 10° SSE night (unlit)
28 May - 18:29:38 10° SW 18:32:52 61° NW 18:36:06 10° NE daylight
29 May - 02:38:22 10° NW 02:41:38 82° SW 02:44:52 10° SE night (unlit)
29 May - 17:37:30 10° SSW 17:40:41 52° SE 17:43:53 10° NE daylight
29 May - 19:16:00 10° WNW 19:17:23 12° NW 19:18:46 10° N daylight
30 May - 01:46:19 10° NNW 01:49:25 41° NE 01:52:30 10° ESE night (unlit)
30 May - 03:24:41 10° WSW 03:25:33 11° SW 03:26:25 10° SW night (unlit)
30 May - 16:45:58 10° S 16:48:35 22° SE 16:51:11 10° ENE daylight
30 May - 18:22:21 10° W 18:24:58 22° NW 18:27:35 10° NNE daylight
31 May - 00:54:34 10° NNW 00:57:05 20° NE 00:59:36 10° E visible
31 May - 02:30:49 10° WNW 02:33:30 24° SW 02:36:11 10° S night (unlit)
31 May - 17:29:29 10° WSW 17:32:38 45° NW 17:35:48 10° NNE daylight
01 Jun - 00:03:31 10° NNE 00:04:38 11° NE 00:05:46 10° NE visible
01 Jun - 01:38:09 10° NW 01:41:22 58° SW 01:44:33 10° SSE night (unlit)
01 Jun - 16:37:08 10° SW 16:40:23 74° SE 16:43:38 10° NE daylight
02 Jun - 00:45:56 10° NW 00:49:08 56° NE 00:52:20 10° SE visible
02 Jun - 15:45:19 10° SSW 15:48:12 29° SE 15:51:07 10° ENE daylight
02 Jun - 17:22:24 10° W 17:24:42 18° NW 17:27:00 10° N daylight
02 Jun - 23:54:01 10° NNW 23:56:48 25° NE 23:59:34 10° E visible
03 Jun - 01:30:48 10° W 01:33:07 18° SW 01:35:26 10° S night (unlit)
03 Jun - 14:54:24 10° SSE 14:56:05 13° SE 14:57:47 10° E daylight
03 Jun - 16:29:17 10° WSW 16:32:18 34° NW 16:35:19 10° NNE daylight
03 Jun - 23:02:34 10° N 23:04:22 14° NE 23:06:09 10° ENE visible
04 Jun - 00:37:52 10° WNW 00:40:58 41° SW 00:44:03 10° SSE night (unlit)
04 Jun - 15:36:43 10° SW 15:39:59 80° NW 15:43:16 10° NE daylight
04 Jun - 23:45:28 10° NW 23:48:44 77° NE 23:51:58 10° SE visible
05 Jun - 14:44:39 10° SSW 14:47:44 40° SE 14:50:50 10° ENE daylight
05 Jun - 16:22:27 10° WNW 16:24:20 14° NW 16:26:13 10° N daylight
05 Jun - 22:53:24 10° NNW 22:56:24 32° NE 22:59:22 10° ESE visible
